[[{"header":{"parameterUnit":"m.s-1","parameterCategory":1,"la1":30.2991,"la2":30.254,"lo1":-89.0895,"lo2":-89.0444,"dy":0.0017,"dx":0.0017,"nx":28,"ny":28,"refTime":"2024-08-16T03:00:00:Z","depth":0,"parameterNumber":2,"parameterNumberName":"U-component_of_WINDS"},"data":[0,0,0,0,0,0,0,0,0,0,0,0,0,0,0,0,0,0,0,0,0,0,0,0,0,0,0,0,0,0,0,0,0,0,0,0,0,0,0,0,0,0,0,0,0,0,0,0,0,0,0,0,0,0,0,0,0,0,-2.242,-2.2421,0,-2.2489,-2.249,-2.2491,-2.25,-2.25,-2.2499,-2.2498,-2.2565,-2.2567,-2.2569,0,0,0,0,0,0,0,0,0,0,0,0,0,-2.2293,-2.2295,-2.242,-2.2421,-2.2422,-2.2489,-2.249,-2.2491,-2.25,-2.25,-2.2499,-2.2498,-2.2564,-2.2567,-2.2569,0,0,0,0,0,0,0,0,0,0,0,0,0,-2.2354,-2.2296,-2.242,-2.2435,-2.2437,-2.2489,-2.249,-2.2491,-2.2501,-2.25,-2.2499,-2.2498,-2.2563,-2.2566,-2.257,-2.2611,0,0,-2.2581,-2.2582,0,0,0,0,0,0,0,0,-2.235,-2.2358,-2.2432,-2.2434,-2.2436,-2.2485,-2.247,-2.2531,-2.2501,-2.2476,-2.2498,-2.2497,-2.2539,-2.2544,-2.2559,-2.2614,-2.2617,-2.2581,-2.2583,-2.2585,-2.2586,0,0,0,0,0,0,0,-2.2346,-2.2355,-2.2448,-2.2433,-2.2436,-2.2437,-2.2444,-2.2481,-2.2512,-2.2478,-2.2479,-2.2487,-2.254,-2.2556,-2.2561,-2.2618,-2.2581,-2.2584,-2.2586,-2.2588,-2.271,-2.2711,0,0,0,0,0,0,-2.234,-2.2352,-2.2445,-2.245,-2.239,-2.244,-2.2448,-2.247,-2.2512,-2.2517,-2.2488,-2.2488,-2.255,-2.2557,-2.2563,-2.2614,-2.2585,-2.2588,-2.259,-2.2709,-2.271,-2.2712,0,0,0,0,0,0,-2.2337,-2.2348,-2.2443,-2.2401,-2.2413,-2.2443,-2.2468,-2.2472,-2.2488,-2.2519,-2.2524,-2.2499,-2.255,-2.2558,-2.2599,-2.2616,-2.259,-2.2593,-2.2708,-2.2709,-2.2711,-2.2716,0,0,0,0,0,0,-2.2333,-2.2347,-2.2363,-2.2401,-2.2415,-2.2479,-2.2469,-2.2474,-2.2495,-2.2495,-2.2531,-2.2536,-2.255,-2.2594,-2.2603,-2.2621,-2.2596,-2.2706,-2.2708,-2.271,-2.2714,-2.2718,-2.272,0,0,0,0,0,-2.2329,-2.2361,-2.2364,-2.2375,-2.2437,-2.248,-2.2487,-2.2504,-2.2496,-2.2513,-2.2533,-2.2534,-2.2613,-2.2598,-2.2608,-2.2627,-2.2705,-2.2708,-2.271,-2.2713,-2.2717,-2.272,0,0,0,0,0,0,-2.2322,-2.2366,-2.237,-2.2416,-2.2444,-2.2481,-2.2502,-2.2508,-2.2537,-2.2536,-2.2554,-2.2562,-2.2602,-2.2619,-2.2601,-2.2669,-2.2658,-2.2663,-2.2657,-2.2661,-2.2664,-2.2659,-2.2598,0,0,0,0,0,-2.2327,-2.2359,-2.2395,-2.2432,-2.2446,-2.2472,-2.2491,-2.2502,-2.2531,-2.2542,-2.2565,-2.2592,-2.2623,-2.2643,-2.2673,-2.2717,-2.2725,-2.2735,-2.2738,-2.2741,-2.2744,-2.2769,-2.2774,-2.272,-2.272,-2.272,0,0,-2.2335,-2.2363,-2.2382,-2.2431,-2.2454,-2.2486,-2.2482,-2.2515,-2.2539,-2.2547,-2.2588,-2.2606,-2.2637,-2.268,-2.27,-2.2695,-2.2761,-2.2744,-2.2746,-2.2748,-2.2772,-2.2777,-2.2781,-2.2722,-2.2721,-2.2721,0,0,-2.2367,-2.2392,-2.2425,-2.2449,-2.2485,-2.2502,-2.251,-2.2547,-2.256,-2.2601,-2.2608,-2.2636,-2.2689,-2.2711,-2.2729,-2.2771,-2.2774,-2.2781,-2.2796,-2.2819,-2.2824,-2.2827,-2.2842,-2.2847,-2.2784,-2.2784,-2.2784,0,-2.2372,-2.2422,-2.2441,-2.2476,-2.2497,-2.2508,-2.2542,-2.2563,-2.2606,-2.262,-2.2615,-2.2682,-2.2704,-2.2753,-2.2763,-2.2778,-2.2787,-2.2776,-2.2822,-2.2826,-2.283,-2.2844,-2.2849,-2.2785,-2.2785,-2.2785,-2.2785,0,-2.2427,-2.2462,-2.2484,-2.2528,-2.2552,-2.2585,-2.2609,-2.2631,-2.264,-2.2657,-2.2699,-2.2727,-2.2763,-2.2775,-2.2783,-2.2825,-2.2821,-2.2818,-2.2807,-2.2835,-2.2849,-2.2854,-2.2785,-2.2785,-2.2785,-2.2785,0,0,-2.2455,-2.2511,-2.2519,-2.2539,-2.258,-2.2606,-2.264,-2.2677,-2.2695,-2.2725,-2.2754,-2.2799,-2.2798,-2.2818,-2.2829,-2.285,-2.2882,-2.2845,-2.2846,-2.2851,-2.2929,-2.293,-2.2936,-2.2884,-2.2885,-2.2886,-2.2926,0,-2.2492,-2.2554,-2.2574,-2.2626,-2.2658,-2.2669,-2.2699,-2.2726,-2.2744,-2.2773,-2.2791,-2.2823,-2.2819,-2.2832,-2.2853,-2.2873,-2.2897,-2.2871,-2.291,-2.2911,-2.2901,-2.2943,-2.2944,-2.298,-2.2931,-2.2932,-2.2933,0,-2.2542,-2.2575,-2.263,-2.2668,-2.2682,-2.2709,-2.2745,-2.2773,-2.2804,-2.2815,-2.284,-2.2849,-2.2884,-2.2872,-2.2921,-2.2902,-2.2919,-2.2932,-2.2934,-2.2937,-2.2923,-2.2947,-2.2992,-2.2997,-2.2942,-2.2941,-2.294,0,-2.2557,-2.2614,-2.2656,-2.2672,-2.2718,-2.2736,-2.2755,-2.2786,-2.2808,-2.2839,-2.2853,-2.2887,-2.2905,-2.2931,-2.2949,-2.2939,-2.2996,-2.2985,-2.3005,-2.3005,-2.3016,-2.3015,-2.3064,-2.3028,-2.3028,-2.3028,-2.3028,0,-2.2595,-2.2628,-2.2663,-2.2688,-2.2726,-2.2747,-2.2784,-2.2804,-2.2831,-2.286,-2.2871,-2.2897,-2.292,-2.2949,-2.2964,-2.3002,-2.301,-2.3019,-2.3022,-2.3018,-2.3017,-2.3029,-2.3026,-2.3029,-2.3029,-2.3029,-2.3028,0,-2.2617,-2.2642,-2.2687,-2.2727,-2.2738,-2.2764,-2.2798,-2.2822,-2.2841,-2.2877,-2.2886,-2.2915,-2.295,-2.2971,-2.3014,-2.3024,-2.3066,-2.3068,-2.3056,-2.3057,-2.3076,-2.3073,-2.3134,-2.3142,-2.3101,-2.3101,-2.3102,0,-2.2639,-2.2666,-2.2709,-2.273,-2.275,-2.2783,-2.2806,-2.2828,-2.2851,-2.2889,-2.2909,-2.2945,-2.2975,-2.303,-2.3054,-2.3087,-2.309,-2.3109,-2.3095,-2.309,-2.309,-2.3088,-2.3091,-2.3111,-2.3111,-2.3112,-2.3112,0,-2.2676,-2.2688,-2.272,-2.2758,-2.2785,-2.2815,-2.2845,-2.2861,-2.2888,-2.2912,-2.2949,-2.2973,-2.3018,-2.3054,-2.309,-2.3108,-2.3114,-2.3117,-2.3123,-2.3118,-2.3109,-2.3114,-2.3061,-2.3115,-2.3114,-2.3114,-2.3114,-2.3114,-2.2699,-2.2723,-2.2758,-2.2794,-2.282,-2.2848,-2.2873,-2.2896,-2.2927,-2.2967,-2.2978,-2.3017,-2.3048,-2.3097,-2.3117,-2.3146,-2.3143,-2.3152,-2.3155,-2.3156,-2.3157,-2.3106,-2.3153,-2.3153,-2.3153,-2.3153,-2.3153,0,-2.2736,-2.276,-2.2793,-2.2836,-2.2864,-2.287,-2.2903,-2.2926,-2.296,-2.299,-2.302,-2.3062,-2.3097,-2.3124,-2.316,-2.3178,-2.3182,-2.3187,-2.3185,-2.3189,-2.3157,-2.3148,-2.3183,-2.3183,-2.3183,-2.3183,-2.3183,-2.3183,-2.2759,-2.2801,-2.2816,-2.2871,-2.2893,-2.2933,-2.2951,-2.2977,-2.3001,-2.3048,-2.3078,-2.3096,-2.3125,-2.3162,-2.3194,-2.3201,-2.3213,-2.3218,-2.3225,-2.3195,-2.3191,-2.3188,-2.318,-2.322,-2.322,-2.3254,-2.3255,-2.3255]},{"header":{"parameterUnit":"m.s-1","parameterCategory":1,"la1":30.2991,"la2":30.254,"lo1":-89.0895,"lo2":-89.0444,"dy":0.0017,"dx":0.0017,"nx":28,"ny":28,"refTime":"2024-08-16T03:00:00:Z","depth":0,"parameterNumber":3,"parameterNumberName":"V-component_of_WINDS"},"data":[0,0,0,0,0,0,0,0,0,0,0,0,0,0,0,0,0,0,0,0,0,0,0,0,0,0,0,0,0,0,0,0,0,0,0,0,0,0,0,0,0,0,0,0,0,0,0,0,0,0,0,0,0,0,0,0,0,0,1.2959,1.296,0,1.3121,1.3123,1.3125,1.3223,1.3223,1.3224,1.3224,1.3386,1.339,1.3394,0,0,0,0,0,0,0,0,0,0,0,0,0,1.2728,1.2732,1.2958,1.296,1.2962,1.3121,1.3123,1.3126,1.3223,1.3223,1.3224,1.3224,1.3385,1.339,1.3394,0,0,0,0,0,0,0,0,0,0,0,0,0,1.2853,1.2733,1.2958,1.303,1.3038,1.3121,1.3123,1.3126,1.3222,1.3223,1.3224,1.3224,1.3384,1.3389,1.3395,1.3417,0,0,1.3413,1.3416,0,0,0,0,0,0,0,0,1.2846,1.2861,1.3017,1.3025,1.3034,1.3153,1.3102,1.3224,1.3222,1.3152,1.3224,1.3225,1.3308,1.332,1.3349,1.3425,1.3432,1.3413,1.3417,1.342,1.3421,0,0,0,0,0,0,0,1.2837,1.2855,1.3023,1.302,1.303,1.3053,1.3072,1.3125,1.3224,1.3158,1.3166,1.3184,1.3313,1.3343,1.3353,1.3434,1.3413,1.3419,1.3422,1.3424,1.3538,1.3537,0,0,0,0,0,0,1.2817,1.2847,1.3018,1.3028,1.294,1.3057,1.3078,1.3114,1.3224,1.3241,1.3183,1.3188,1.3333,1.3346,1.3359,1.3394,1.3419,1.3425,1.3428,1.3538,1.3538,1.3537,0,0,0,0,0,0,1.2812,1.2832,1.3011,1.294,1.2964,1.306,1.31,1.3117,1.3147,1.3243,1.326,1.3197,1.3334,1.3351,1.3403,1.3401,1.3428,1.3433,1.3539,1.3538,1.3537,1.3461,0,0,0,0,0,0,1.2805,1.2829,1.2839,1.2939,1.2968,1.3052,1.31,1.3119,1.3158,1.3165,1.326,1.3276,1.3336,1.3394,1.3409,1.3409,1.3437,1.354,1.3539,1.3538,1.3464,1.3458,1.3453,0,0,0,0,0,1.2797,1.281,1.2839,1.2859,1.2982,1.3052,1.3068,1.3138,1.3157,1.3168,1.3229,1.3273,1.3398,1.3398,1.3416,1.3418,1.354,1.3539,1.3538,1.3467,1.3459,1.3453,0,0,0,0,0,0,1.2706,1.2824,1.2858,1.2905,1.2968,1.3068,1.3084,1.3127,1.3185,1.319,1.3272,1.3293,1.3336,1.3382,1.338,1.3446,1.3474,1.3476,1.3414,1.3408,1.3402,1.339,1.3442,0,0,0,0,0,1.2691,1.2739,1.284,1.2871,1.2901,1.2987,1.302,1.3068,1.3136,1.3163,1.3228,1.3291,1.3346,1.3379,1.3434,1.3471,1.3494,1.3482,1.3476,1.347,1.3472,1.3496,1.3492,1.3534,1.3534,1.3534,0,0,1.2662,1.2732,1.2757,1.2855,1.2909,1.2956,1.3009,1.3056,1.3091,1.317,1.3223,1.3273,1.3349,1.3394,1.3417,1.3434,1.3465,1.3469,1.3464,1.3468,1.3494,1.349,1.3487,1.3533,1.3533,1.3533,0,0,1.2632,1.269,1.2723,1.2777,1.286,1.2917,1.2925,1.302,1.3057,1.3112,1.3172,1.3215,1.3305,1.3358,1.3396,1.3387,1.343,1.3402,1.3371,1.3394,1.3391,1.3388,1.3386,1.3384,1.3403,1.3403,1.3403,0,1.2584,1.2659,1.2734,1.2779,1.282,1.2895,1.2929,1.2977,1.3073,1.3099,1.3117,1.3233,1.329,1.3348,1.3346,1.3375,1.3386,1.3392,1.3385,1.3384,1.3382,1.3381,1.338,1.3399,1.34,1.34,1.34,0,1.2596,1.2647,1.2664,1.2756,1.2799,1.2838,1.2918,1.2953,1.2997,1.3052,1.3107,1.3178,1.3249,1.3266,1.3309,1.3331,1.3339,1.337,1.34,1.3373,1.3373,1.3373,1.3394,1.3395,1.3396,1.3397,0,0,1.2513,1.2649,1.2653,1.2697,1.2794,1.2834,1.2876,1.2947,1.2975,1.3038,1.3075,1.3151,1.3181,1.3224,1.3274,1.3294,1.3283,1.3322,1.3325,1.3313,1.3312,1.3289,1.3287,1.3312,1.3312,1.3312,1.3306,0,1.2498,1.2579,1.2649,1.2704,1.2752,1.2824,1.2861,1.2924,1.2976,1.3024,1.3081,1.3134,1.3169,1.3196,1.3218,1.3279,1.3284,1.3281,1.3347,1.3348,1.3326,1.3287,1.3263,1.3253,1.3306,1.3307,1.3307,0,1.2491,1.2554,1.2614,1.2708,1.2731,1.2762,1.2834,1.2878,1.2951,1.2988,1.3037,1.309,1.3137,1.3162,1.3228,1.3224,1.3255,1.3289,1.3291,1.33,1.3326,1.3295,1.3252,1.325,1.3307,1.3307,1.3307,0,1.2426,1.2525,1.2574,1.2609,1.2719,1.274,1.2787,1.286,1.2899,1.2961,1.2987,1.3052,1.3088,1.3137,1.3206,1.3218,1.3265,1.3295,1.3296,1.3294,1.3303,1.3301,1.3264,1.3322,1.3322,1.3322,1.3322,0,1.2402,1.2436,1.2546,1.2576,1.2617,1.2696,1.2734,1.2786,1.2852,1.2893,1.2958,1.2995,1.3084,1.3131,1.3185,1.3232,1.3247,1.3278,1.3292,1.3272,1.3268,1.3294,1.3296,1.3321,1.3322,1.3322,1.3322,0,1.2335,1.2411,1.2469,1.257,1.2596,1.2621,1.2706,1.2738,1.2795,1.2846,1.2862,1.2951,1.301,1.3084,1.3165,1.3202,1.3243,1.3264,1.3219,1.3227,1.3224,1.3224,1.3202,1.3204,1.3259,1.3258,1.3258,0,1.2315,1.2344,1.2448,1.2481,1.2526,1.2578,1.2619,1.2698,1.2737,1.2823,1.2844,1.2909,1.2965,1.3056,1.3127,1.319,1.3213,1.3201,1.3223,1.3203,1.3214,1.3212,1.3215,1.3196,1.3195,1.3194,1.3193,0,1.2272,1.2309,1.2365,1.2435,1.2482,1.254,1.2601,1.2624,1.2716,1.2756,1.2819,1.2862,1.2947,1.301,1.3083,1.313,1.3177,1.3186,1.319,1.317,1.3143,1.3159,1.3204,1.3186,1.3187,1.3187,1.3188,1.3188,1.2229,1.2258,1.2337,1.2398,1.2452,1.2508,1.2543,1.2605,1.2659,1.2736,1.2779,1.284,1.2912,1.3015,1.306,1.3109,1.3126,1.3131,1.3132,1.3133,1.3127,1.3135,1.3122,1.3122,1.3123,1.3123,1.3123,0,1.219,1.2245,1.23,1.2384,1.2432,1.2474,1.2544,1.2581,1.2634,1.2699,1.2753,1.2825,1.2887,1.2963,1.303,1.3054,1.3077,1.3069,1.3068,1.3078,1.3107,1.3098,1.3049,1.3049,1.3049,1.3049,1.3049,1.3049,1.2176,1.2227,1.2273,1.2352,1.2406,1.2468,1.2505,1.2556,1.2609,1.2686,1.2739,1.2789,1.2858,1.2931,1.2989,1.301,1.3032,1.3017,1.3044,1.307,1.3076,1.3082,1.3074,1.3021,1.3021,1.3012,1.3011,1.3011]}]]